Location: Unspecified
(0.0000°N, 0.0000°E)
Time: 11:13:27
(UTC+00:00)

Vanguard 3 - Pass Details

Date: 19 November 2019
Orbit: 508 x 3263 km, 33.3° (Epoch: 13 December)

Event Time Altitude Azimuth Distance (km) Brightness Sun altitude
Rises 19:12:43 0° 320° (NW) 6,316 11.9 -20.5°
Reaches altitude 10° 19:19:09 10° 335° (NNW) 4,748 11.1 -22.0°
Maximum altitude 19:27:18 20° 16° (NNE) 3,187 9.8 -23.9°
Enters shadow 19:27:53 20° 20° (NNE) 3,132 9.7 -24.0°
Drops below altitude 10° 19:33:04 10° 60° (ENE) 3,227 - -25.3°
Sets 19:36:18 0° 78° (ENE) 3,806 - -26.0°
